When you browse on this site, cookies collect data to enhance your experience and personalize the content and advertising you see.
Visit our Privacy Policy to learn more. By continuing to use the site, you agree to this use of cookies and data.
  • In United Kingdom
  • List of Countries
  • For 7 days
  • Water Temperature
  • Weather Map
  • Weather Widgets
  • user-avatar
    Login

    Hourly Weather Chitila

    Today, 18 September, Wednesday

    Time Temperature Precipitation Wind Pressure Humidity
    00:00 +22°C° 0 mm 1 mps 750 mmHg 47%
    01:00 +21°C° 0 mm 1 mps 750 mmHg 49%
    02:00 +21°C° 0 mm 1 mps 750 mmHg 50%
    03:00 +21°C° 0 mm 1 mps 750 mmHg 51%
    04:00 +21°C° 0 mm 1 mps 749 mmHg 51%
    05:00 +21°C° 0 mm 1 mps 749 mmHg 52%
    06:00 +22°C° 0 mm 1 mps 750 mmHg 49%
    07:00 +23°C° 0 mm 2 mps 750 mmHg 46%
    08:00 +24°C° 0 mm 2 mps 750 mmHg 43%
    09:00 +26°C° 0 mm 3 mps 751 mmHg 38%
    10:00 +27°C° 0 mm 3 mps 751 mmHg 34%
    11:00 +29°C° 0 mm 4 mps 752 mmHg 29%
    12:00 +28°C° 0 mm 4 mps 752 mmHg 28%
    13:00 +27°C° 0 mm 4 mps 752 mmHg 27%
    14:00 +27°C° 0 mm 4 mps 752 mmHg 26%
    15:00 +26°C° 0 mm 4 mps 753 mmHg 28%
    16:00 +25°C° 0 mm 3 mps 753 mmHg 31%
    17:00 +24°C° 0 mm 3 mps 753 mmHg 33%
    18:00 +22°C° 0 mm 3 mps 754 mmHg 38%
    19:00 +20°C° 0 mm 3 mps 755 mmHg 43%
    20:00 +18°C° 0 mm 3 mps 756 mmHg 49%
    21:00 +18°C° 0 mm 3 mps 756 mmHg 46%
    22:00 +18°C° 0 mm 4 mps 756 mmHg 43%
    23:00 +17°C° 0 mm 5 mps 757 mmHg 41%

    Tomorrow, 19 September, Thursday

    Time Temperature Precipitation Wind Pressure Humidity
    00:00 +16°C° 0 mm 5 mps 757 mmHg 39%
    01:00 +15°C° 0 mm 5 mps 757 mmHg 37%
    02:00 +14°C° 0 mm 5 mps 758 mmHg 35%
    03:00 +13°C° 0 mm 5 mps 758 mmHg 39%
    04:00 +12°C° 0 mm 5 mps 758 mmHg 43%
    05:00 +10°C° 0 mm 5 mps 758 mmHg 48%
    06:00 +12°C° 0 mm 5 mps 758 mmHg 46%
    07:00 +13°C° 0 mm 5 mps 758 mmHg 44%
    08:00 +14°C° 0 mm 6 mps 757 mmHg 42%
    09:00 +15°C° 0 mm 5 mps 757 mmHg 40%
    10:00 +18°C° 0 mm 4 mps 758 mmHg 37%
    11:00 +20°C° 0 mm 4 mps 758 mmHg 35%
    12:00 +20°C° 0 mm 3 mps 757 mmHg 34%
    13:00 +21°C° 0 mm 3 mps 757 mmHg 32%
    14:00 +23°C° 0 mm 2 mps 757 mmHg 31%
    15:00 +21°C° 0 mm 3 mps 757 mmHg 34%
    16:00 +20°C° 0 mm 3 mps 757 mmHg 37%
    17:00 +19°C° 0 mm 4 mps 757 mmHg 41%
    18:00 +17°C° 0.1 mm 4 mps 757 mmHg 50%
    19:00 +15°C° 0.1 mm 4 mps 757 mmHg 59%
    20:00 +13°C° 0.1 mm 4 mps 757 mmHg 69%
    21:00 +12°C° 0 mm 4 mps 758 mmHg 72%
    22:00 +11°C° 0 mm 4 mps 758 mmHg 75%
    23:00 +10°C° 0 mm 3 mps 758 mmHg 79%

    Day after tomorrow, 20 September, Friday

    Time Temperature Precipitation Wind Pressure Humidity
    00:00 +10°C° 0 mm 3 mps 758 mmHg 80%
    01:00 +9°C° 0 mm 3 mps 758 mmHg 81%
    02:00 +9°C° 0 mm 2 mps 758 mmHg 82%
    03:00 +8°C° 0 mm 2 mps 758 mmHg 81%
    04:00 +8°C° 0 mm 2 mps 758 mmHg 81%
    05:00 +9°C° 0 mm 1 mps 758 mmHg 81%
    06:00 +10°C° 0 mm 2 mps 758 mmHg 72%
    07:00 +12°C° 0 mm 2 mps 758 mmHg 63%
    08:00 +13°C° 0 mm 3 mps 758 mmHg 54%
    09:00 +14°C° 0 mm 3 mps 758 mmHg 48%
    10:00 +17°C° 0 mm 3 mps 758 mmHg 43%
    11:00 +18°C° 0 mm 2 mps 758 mmHg 38%
    12:00 +19°C° 0 mm 2 mps 758 mmHg 34%
    13:00 +20°C° 0 mm 2 mps 758 mmHg 30%
    14:00 +22°C° 0 mm 1 mps 757 mmHg 26%
    15:00 +22°C° 0 mm 1 mps 757 mmHg 25%
    16:00 +21°C° 0 mm 2 mps 757 mmHg 24%
    17:00 +21°C° 0 mm 2 mps 757 mmHg 24%
    18:00 +19°C° 0 mm 2 mps 758 mmHg 27%
    19:00 +17°C° 0 mm 2 mps 759 mmHg 31%
    20:00 +15°C° 0 mm 2 mps 759 mmHg 34%
    21:00 +14°C° 0 mm 2 mps 760 mmHg 38%
    22:00 +12°C° 0 mm 3 mps 760 mmHg 41%
    23:00 +11°C° 0 mm 3 mps 760 mmHg 44%

    21 September, Saturday

    Time Temperature Precipitation Wind Pressure Humidity
    00:00 +11°C° 0 mm 3 mps 761 mmHg 44%
    01:00 +10°C° 0 mm 3 mps 761 mmHg 45%
    02:00 +10°C° 0 mm 3 mps 761 mmHg 45%
    03:00 +9°C° 0 mm 2 mps 761 mmHg 46%
    04:00 +8°C° 0 mm 2 mps 762 mmHg 48%
    05:00 +9°C° 0 mm 1 mps 762 mmHg 49%
    06:00 +10°C° 0 mm 1 mps 762 mmHg 45%
    07:00 +10°C° 0 mm 2 mps 762 mmHg 42%
    08:00 +13°C° 0 mm 2 mps 762 mmHg 38%
    09:00 +15°C° 0 mm 2 mps 762 mmHg 35%
    10:00 +17°C° 0 mm 2 mps 762 mmHg 32%
    11:00 +18°C° 0 mm 3 mps 762 mmHg 29%
    12:00 +20°C° 0 mm 2 mps 762 mmHg 27%
    13:00 +21°C° 0 mm 2 mps 761 mmHg 24%
    14:00 +23°C° 0 mm 1 mps 761 mmHg 22%
    15:00 +22°C° 0 mm 1 mps 760 mmHg 22%
    16:00 +22°C° 0 mm 1 mps 760 mmHg 22%
    17:00 +22°C° 0 mm 1 mps 760 mmHg 22%
    18:00 +20°C° 0 mm 1 mps 760 mmHg 25%
    19:00 +17°C° 0 mm 2 mps 760 mmHg 29%
    20:00 +15°C° 0 mm 2 mps 761 mmHg 32%
    21:00 +14°C° 0 mm 2 mps 761 mmHg 35%
    22:00 +13°C° 0 mm 2 mps 761 mmHg 37%
    23:00 +12°C° 0 mm 2 mps 761 mmHg 40%

    22 September, Sunday

    Time Temperature Precipitation Wind Pressure Humidity
    00:00 +12°C° 0 mm 2 mps 761 mmHg 45%
    01:00 +11°C° 0 mm 1 mps 761 mmHg 49%
    02:00 +11°C° 0 mm 1 mps 761 mmHg 53%
    03:00 +10°C° 0 mm 1 mps 761 mmHg 55%
    04:00 +10°C° 0 mm 1 mps 760 mmHg 56%
    05:00 +10°C° 0 mm 1 mps 760 mmHg 57%
    06:00 +11°C° 0 mm 1 mps 760 mmHg 53%
    07:00 +13°C° 0 mm 1 mps 760 mmHg 48%
    08:00 +15°C° 0 mm 1 mps 760 mmHg 44%
    09:00 +18°C° 0 mm 1 mps 759 mmHg 37%
    10:00 +19°C° 0 mm 2 mps 759 mmHg 31%
    11:00 +23°C° 0 mm 2 mps 759 mmHg 25%
    12:00 +24°C° 0 mm 2 mps 758 mmHg 23%
    13:00 +25°C° 0 mm 2 mps 758 mmHg 20%
    14:00 +26°C° 0 mm 2 mps 757 mmHg 18%
    15:00 +26°C° 0 mm 2 mps 757 mmHg 18%
    16:00 +26°C° 0 mm 1 mps 756 mmHg 18%
    17:00 +26°C° 0 mm 1 mps 756 mmHg 18%
    18:00 +24°C° 0 mm 1 mps 756 mmHg 21%
    19:00 +21°C° 0 mm 1 mps 756 mmHg 25%
    20:00 +19°C° 0 mm 1 mps 756 mmHg 28%
    21:00 +18°C° 0 mm 1 mps 756 mmHg 36%
    22:00 +16°C° 0 mm 2 mps 756 mmHg 43%
    23:00 +14°C° 0 mm 2 mps 756 mmHg 51%

    23 September, Monday

    Time Temperature Precipitation Wind Pressure Humidity
    00:00 +14°C° 0 mm 2 mps 756 mmHg 55%
    01:00 +13°C° 0 mm 1 mps 756 mmHg 59%
    02:00 +12°C° 0 mm 1 mps 756 mmHg 63%
    03:00 +12°C° 0 mm 1 mps 755 mmHg 65%
    04:00 +12°C° 0 mm 1 mps 755 mmHg 68%
    05:00 +11°C° 0 mm 1 mps 755 mmHg 70%
    06:00 +13°C° 0 mm 1 mps 754 mmHg 64%
    07:00 +14°C° 0 mm 1 mps 754 mmHg 57%
    08:00 +16°C° 0 mm 1 mps 754 mmHg 51%
    09:00 +19°C° 0 mm 1 mps 754 mmHg 43%
    10:00 +22°C° 0 mm 1 mps 754 mmHg 35%
    11:00 +25°C° 0 mm 1 mps 753 mmHg 26%
    12:00 +26°C° 0 mm 1 mps 753 mmHg 23%
    13:00 +28°C° 0 mm 1 mps 752 mmHg 20%
    14:00 +29°C° 0 mm 1 mps 751 mmHg 18%
    15:00 +29°C° 0 mm 1 mps 751 mmHg 18%
    16:00 +29°C° 0 mm 1 mps 750 mmHg 18%
    17:00 +29°C° 0 mm 1 mps 750 mmHg 18%
    18:00 +27°C° 0 mm 1 mps 750 mmHg 20%
    19:00 +26°C° 0 mm 1 mps 750 mmHg 22%
    20:00 +24°C° 0 mm 1 mps 750 mmHg 24%
    21:00 +24°C° 0 mm 1 mps 750 mmHg 26%
    22:00 +23°C° 0 mm 1 mps 750 mmHg 27%
    23:00 +23°C° 0 mm 1 mps 750 mmHg 29%
    Show more